Regional Weather Roundup
Issued by NWS Grand Forks, ND

Home | Current Version | Previous Version | Graphics & Text | Print | Product List | Glossary On
Versions: 1 2 3 4 5 6 7 8 9 10 11 12 13 14 15 16 17 18 19 20 21 22 23 24 25 26 27 28 29 30 31 32 33 34 35 36 37 38 39 40 41 42 43 44 45 46 47 48 49 50
000
ASUS43 KFGF 301710
RWRFGF
PRAIRIE TO PINES  WEATHER ROUNDUP
NATIONAL WEATHER SERVICE EASTERN NORTH DAKOTA/GRAND FORKS ND
1200 PM CDT WED JUL 30 2014

 **SATELLITE DATA USED TO AUGMENT SKY COVER AT AUTOMATED STATIONS**
 *****  WEATHER ACROSS EASTERN NORTH DAKOTA  *****

CITY           SKY/WX    TMP DP  RH WIND       PRES   REMARKS
GRAND FORKS    FAIR      77  57  50 N3        30.11F
GRAND FRKS AFB FAIR      76  58  53 NW8       30.12F
GRAND FRKS NWS   N/A     77 N/A N/A NW6         N/A
DEVILS LAKE    FAIR      73  55  53 NW6       30.13F
FARGO          FAIR      77  55  46 NW6       30.12F
WAHPETON ARPT  FAIR      75  50  41 N5        30.14S
$$

 ***** WEATHER ACROSS CENTRAL AND WESTERN NORTH DAKOTA  *****

CITY           SKY/WX    TMP DP  RH WIND       PRES   REMARKS
BISMARCK       FAIR      80  56  43 VRB3      30.16F
MINOT          FAIR      75  60  59 NE5       30.16S
JAMESTOWN      FAIR      75  53  46 NW6       30.15F
MINOT AFB      FAIR      75  64  68 CALM      30.16S
GARRISON         N/A     74  59  59 S3        30.17S
WILLISTON      FAIR      79  51  37 NE12      30.19S
DICKINSON      FAIR      76  54  46 CALM      30.18S
HETTINGER      FAIR      76  55  48 NE8       30.20R
$$

 *****  OTHER AIRPORT OBSERVATIONS IN OUR AREA  *****

CITY           SKY/WX    TMP DP  RH WIND       PRES   REMARKS
WALHALLA       FAIR      75  55  50 N7          N/A
GRAFTON AIRPOR FAIR      75  55  50 NW5       30.11S
VALLEY CITY AR FAIR      75  52  43 N7        30.15F
CANDO          FAIR      75  59  57 N10       30.15S
CAVALIER APRT  FAIR      77  55  47 NW5       30.11S
GWINNER        SUNNY     75  54  46 N5        30.16S
SHEYENNE NWR     N/A     79  55  43 NW3       29.95S
ROLLA            N/A     73  55  53 N7        30.17S
 ***** THE ABOVE OBSERVATIONS ARE NON NWS ARE NOT QUALITY
       CONTROLLED AND MAY MIS-REPORT RAIN FOR SNOW...
$$

  *****  WEATHER ACROSS NORTHERN MINNESOTA  *****

CITY           SKY/WX    TMP DP  RH WIND       PRES   REMARKS
FLAG ISLAND    FAIR      73  57  56 NW13      30.05S
WARROAD        FAIR      75  59  57 NW9       30.09R
ROSEAU         FAIR      75  61  60 NW10      30.09S
HALLOCK        FAIR      75  55  50 NW6       30.10S
THF RVR FALLS  FAIR      73  57  56 NW9       30.12S
BAUDETTE       FAIR      75  57  53 NW16      30.08S
WASKISH        FAIR      75  59  57 CALM      30.08S
CROOKSTON      FAIR      73  57  56 N6        30.12F
$$
  *****  WEATHER ACROSS CENTRAL AND WEST MINNESOTA  *****

CITY           SKY/WX    TMP DP  RH WIND       PRES   REMARKS
FOSSTON        FAIR      73  57  56 NW8       30.13S
BEMIDJI        FAIR      74  56  51 NW16      30.11S
PARK RAPIDS    FAIR      75  53  46 NW12      30.11S
ELBOW LAKE     FAIR      72  58  62 NW7       30.14S
WADENA         FAIR      73  55  53 NW10G16   30.12F
DETROIT LAKES  FAIR      73  55  53 N9        30.15S
MOORHEAD       FAIR      73  57  56 NW5       30.14S
FERGUS FALLS   FAIR      73  52  46 N8        30.13F
MORRIS MN      FAIR      75  57  53 NW8       30.14S
STAPLES        FAIR      75  55  50 NW9       30.11F
$$
  *****  WEATHER ELSEWHERE ACROSS MINNESOTA  *****

CITY           SKY/WX    TMP DP  RH WIND       PRES   REMARKS
DULUTH         PTSUNNY   72  59  63 W12       30.05F
INTRNTL FALLS  FAIR      75  59  57 NW16      30.03F
ELY            FAIR      70  59  68 NW7       30.02F
CLOQUET        FAIR      73  57  56 W10       30.06F
WHEATON        FAIR      72  55  56 NW6       30.16S
BRAINERD       FAIR      74  56  53 NW9       30.10S
HIBBING        FAIR      75  60  59 NW13      30.05S
ALEXANDRIA     FAIR      75  55  49 NW10      30.15S
SAINT CLOUD    FAIR      79  55  43 N9        30.10S
MINNEAPOLIS    FAIR      77  57  50 W5        30.09F
$$

  *****  WEATHER ACROSS SOUTH DAKOTA  *****

CITY           SKY/WX    TMP DP  RH WIND       PRES   REMARKS
SIOUX FALLS    FAIR      76  54  46 VRB3      30.16F
BROOKINGS      NOT AVBL
WATERTOWN      FAIR      73  54  51 NW7       30.16F
HURON          FAIR      76  52  43 VRB5      30.15F
SISSETON         N/A     76  53  44 VRB5      30.13F
ABERDEEN       FAIR      76  54  46 VRB5      30.15F
MITCHELL       FAIR      77  53  43 CALM      30.17S
PIERRE         CLOUDY    79  55  43 E6        30.14S
MOBRIDGE       FAIR      79  58  48 S8        30.13S
RAPID CITY     FAIR      79  56  45 NE8       30.20F
$$

  *****  SOME WEATHER IN NEARBY STATES *****

CITY           SKY/WX    TMP DP  RH WIND       PRES   REMARKS
GLASGOW MT     FAIR      82  52  35 S12       30.16F
GREAT FALLS MT FAIR      87  43  21 S10G17    30.16F
CHEYENNE WY    LGT RAIN  57  54  89 NE5       30.38R
SCOTTSBLUFF NE FAIR      74  59  59 VRB3      30.28S
OMAHA NE       FAIR      77  55  46 N8        30.16S
DES MOINES IA  FAIR      76  54  46 N7        30.13S
DAVENPORT IA   FAIR      75  61  61 W3        30.09S
CHICAGO IL     FAIR      77  52  41 NW10      30.04F
EAU CLAIRE WI  FAIR      69  56  62 CALM      30.09S
LA CROSSE WI   FAIR      72  59  63 W7        30.08S
$$

  *****  SOME NATIONAL WEATHER *****

CITY           SKY/WX    TMP DP  RH WIND       PRES   REMARKS
LA GUARDIA NY  FAIR      78  45  30 N7        30.01F
RALEIGH NC     PTSUNNY   76  63  64 E6        30.09F
ATLANTA GA     PTSUNNY   78  58  49 CALM      30.06F
NEW ORLEANS LA PTSUNNY   85  61  44 NE12      30.07F
OKLAHOMA CITY  RAIN      70  66  88 S12       30.05F FOG
ALBUQUERQUE NM FAIR      77  57  50 VRB3      30.23F
SALT LAKE CITY LGT RAIN  69  62  78 NW8       30.20S
LOS ANGELES CA FAIR      76  62  62 W6        29.97S
BOISE ID       FAIR      78  53  41 NE6       30.15S
SEATTLE WA     FAIR      68  58  70 VRB3      30.16S
$$

*** WEATHER ACROSS MANITOBA...SASKATCHEWAN AND ONTARIO ***
                ***ONTARIO***

CITY           SKY/WX    TMP DP  RH WIND       PRES   REMARKS
GERALDTON      PTSUNNY   61  54  77 NW8       29.91F
THUNDER BAY    CLOUDY    66  59  77 NW2       29.94F THUNDER
SIOUX LOOKOUT  PTSUNNY   70  52  52 N8G17     30.01S
TORONTO        PTSUNNY   72  55  56 W8        29.94F
BIG TROUT LK   SUNNY     66  46  48 N9G18     29.99S
PICKLE LAKE    MOSUNNY   68  48  49 N8G17     29.97F
DRYDEN         SUNNY     73  52  46 N9        30.02S
KENORA         PTSUNNY   73  59  60 NW9       30.06S
$$
                *** MANITOBA***

CITY           SKY/WX    TMP DP  RH WIND       PRES   REMARKS
BRANDON        MOSUNNY   77  59  53 W10       30.14S
DAUPHIN        SUNNY     81  61  50 W6        30.10S
ISLAND LAKE    MOSUNNY   73  52  46 NE3       30.07S
PILOT MOUND      N/A     73  57  56 N6          N/A
THE PAS        MOSUNNY   79  57  47 N3        30.08S
THOMPSON       SUNNY     77  55  47 SW3       30.08S
WINNIPEG       SUNNY     77  57  50 NW8       30.09S
LYNN LAKE      SUNNY     82  50  32 N7        30.08F
CHURCHILL      SUNNY     68  50  52 SE6       30.11S
GILLAM         PTSUNNY   70  50  49 N5        30.09S
$$
                ***SASKATCHEWAN***

CITY           SKY/WX    TMP DP  RH WIND       PRES   REMARKS
ESTEVAN        MOSUNNY   73  52  46 NE7       30.20S
KINDERSLEY     MOSUNNY   75  61  60 S8        30.08F
LLOYDMINSTER   MOSUNNY   73  63  68 E7        30.06S
PRINCE ALBERT  MOSUNNY   77  61  57 SE5       30.13F
REGINA         PTSUNNY   77  57  50 S8        30.18F
YORKTON        SUNNY     75  59  57 N6        30.16F
N. BATTLEFORD  NOT AVBL
LA RONGE       MOSUNNY   79  57  47 SE3       30.11F
SASKATOON      PTSUNNY   79  63  57 SE13G20   30.13F
SWIFT CURRENT  SUNNY     79  57  47 S14       30.12S
$$
NOTE: THESE ARE AUTOMATED STATIONS WITH LIMITED QUALITY CONTROL
      "FAIR" INDICATES FEW OR NO CLOUDS BELOW 12,000 FEET WITH NO
      SIGNIFICANT WEATHER AND/OR OBSTRUCTIONS TO VISIBILITY.
      SKY/WX - SKY CONDITION AND SIGNIFICANT WEATHER.
      TMP - AIR TEMPERATURE.    DP   - DEWPOINT TEMPERATURE.
      RH  - RELATIVE HUMIDITY.  PRES - PRESSURE.
      HX  - HEAT INDEX.         WCI  - WIND CHILL INDEX.
$



USA.gov is the U.S. government's official web portal to all federal, state and local government web resources and services.